www.pogodaiklimat.ru

Погода и климат >> Архив погоды >> Корея >> Донгхэ


ПОГОДА в Донгхэ

  • Прогноз погоды в Донгхэ
  • Монитор погоды в Донгхэ

АРХИВ ПОГОДЫ в Донгхэ

Время (UTC), дата Ветер
(напр.,м/с)
 
Видим.   Явления Облачность Т
(С)
Тd
(С)
f
(%)
Тe
(С)
Тes
(С)
Комфортность P
(гПа)
Po
(гПа)
Тmin
(С)
Tmax
(С)
R
(мм)
R24
(мм)
S
(см)
00 10.09 СВ 5 20 км 8/8 1500 м
[]
+23.2 +20.1 83 +30 +31 очень
душно
1013.9 1009.3 +20.4 0.0
03 10.09 20 км н/о +23.5 +20.2 82 +29 +31 душно 1013.7 1009.1
06 10.09 С 3 20 км 8/8 300 м
[]
+22.3 +18.8 81 +28 +29 душно 1013.3 1008.6
09 10.09 С 2 20 км 9// 300 м
[]
+21.1 +18.0 82 +25 +25 комфорт 1014.2 1009.5
12 10.09 С 4 20 км 8/8 300 м
[]
+20.8 +18.3 86 +25 +25 комфорт 1015.4 1010.7 +24.7 0.0
15 10.09 20 км н/о +20.5 +18.6 89 +25 +25 комфорт 1015.3 1010.6
18 10.09 З 1 2800 м ?/? +19.8 +19.4 98 +24 +24 комфорт 1014.6 1009.9 7
21 10.09 С 3 3100 м 10/10 200 м
[]
+19.0 +18.6 98 +21 +21 комфорт 1015.5 1010.8
00 11.09 С 4 4700 м ?/? +19.7 +19.2 97 +23 +23 комфорт 1017.4 1012.7 +18.9 39
03 11.09 С 1 6000 м 10// 300 м
[]
+20.2 +19.7 97 +25 +34 комфорт 1017.7 1013.0
06 11.09 С 2 9000 м 9/9 600 м
[]
+19.6 +19.1 97 +23 +24 комфорт 1017.8 1013.1
09 11.09 С 2 20 км 10// 600 м
[]
+19.3 +18.1 93 +22 +22 комфорт 1018.5 1013.8
12 11.09 С 3 20 км ?/? +19.3 +17.6 90 +22 +22 комфорт 1020.2 1015.5 +20.7 3
15 11.09 СЗ 1 18 км 9// 600 м
[]
+18.7 +17.3 92 +21 +21 комфорт 1020.4 1015.6
18 11.09 С 1 20 км ?/? +18.5 +16.9 90 +20 +20 1019.9 1015.1 0.1
21 11.09 20 км 10/3 1000 м
[]
+18.0 +16.3 90 1020.4 1015.6
00 12.09 СЗ 2 20 км ?/? +19.7 +15.7 78 +22 +22 комфорт 1021.1 1016.4 +17.8 0.1
03 12.09 СВ 1 20 км 10/4
[]
+20.2 +14.9 72 +24 +29 комфорт 1020.5 1015.7
06 12.09 СВ 1 20 км ?/? +20.1 +14.8 72 +24 +29 комфорт 1018.5 1013.8
09 12.09 штиль 0 20 км 10/6
[]
+19.2 +15.2 78 +21 +21 комфорт 1018.0 1013.3
12 12.09 З 2 20 км ?/? +17.9 +15.3 85 +18 +18 1019.1 1014.3 +20.6 0.0
15 12.09 19 км н/о +16.9 +15.5 91 +18 +18 1017.7 1012.9
18 12.09 З 2 20 км 5/5 1000 м
[]
+15.7 +15.0 96 +16 +16 1017.2 1012.4
21 12.09 19 км н/о +15.2 +14.5 96 +16 +16 1017.0 1012.2
00 13.09 В 2 20 км 8/8 1000 м
[]
+19.9 +15.3 75 +23 +24 комфорт 1017.4 1012.7 +14.9 0.0
03 13.09 В 2 20 км 5/5 1500 м
[]
+20.5 +15.6 73 +24 +31 комфорт 1015.9 1011.2
06 13.09 В 1 20 км 5/5 1500 м
[]
+21.1 +16.2 74 +24 +29 комфорт 1014.5 1009.8
09 13.09 20 км н/о +20.4 +16.0 76 +24 +25 комфорт 1014.5 1009.8
12 13.09 З 1 20 км 3/0
[]
+17.1 +15.6 91 +18 +18 1014.9 1010.1 +22.3
15 13.09 ЮЗ 2 19 км 5/0
[]
+17.3 +15.6 90 +18 +18 1013.6 1008.8
18 13.09 З 2 20 км 8/0
[]
+17.0 +15.1 89 +17 +17 1012.3 1007.5
21 13.09 Ю 2 19 км 9/4
[]
+16.4 +15.2 93 +16 +16 1011.8 1007.0
00 14.09 Ю 1 20 км 9/0
[]
+21.0 +16.6 76 +26 +30 душно 1011.7 1007.0 +16.3
03 14.09 В 1 20 км 8/6
[]
+22.6 +17.2 72 +27 +33 душно 1010.4 1005.8
06 14.09 20 км ?/? +22.8 +17.4 72 1009.1 1004.5
09 14.09 СВ 1 20 км 10// 2000 м
[]
+21.6 +18.7 84 +26 +27 душно 1009.2 1004.5
12 14.09 штиль 0 20 км 9/0
[]
+21.8 +19.1 85 +27 +27 душно 1011.1 1006.4 +23.8
15 14.09 ЮЗ 1 20 км 3/1 1000 м
[]
+20.4 +18.5 89 +25 +25 комфорт 1011.3 1006.6
18 14.09 С 2 20 км 9/9 1000 м
[]
+21.7 +18.4 82 +26 +26 душно 1011.4 1006.7
21 14.09 19 км н/о +20.4 +19.7 96 +24 +24 комфорт 1011.8 1007.1
00 15.09 С 4 20 км ?/? +20.9 +19.5 92 +26 +26 душно 1013.4 1008.7 +19.8 0.3
03 15.09 ЮЗ 1 20 км 9// 600 м
[]
+19.6 +18.6 94 +23 +33 комфорт 1013.7 1009.0
06 15.09 СВ 2 20 км 8/8 1000 м
[]
+21.1 +15.1 69 +24 +25 комфорт 1012.4 1007.7 2
09 15.09 С 2 20 км 5/0
[]
+19.6 +14.1 71 +22 +22 комфорт 1012.3 1007.6
12 15.09 С 2 20 км 8/0 2000 м
[]
+18.4 +15.0 81 +19 +19 1012.9 1008.2 +21.8 2
15 15.09 З 2 20 км 4/3
[]
+16.4 +15.0 91 +16 +16 1012.7 1007.9
18 15.09 ЮЗ 1 20 км 8/0
[]
+15.2 +14.2 94 +16 +16 1011.3 1006.5
21 15.09 З 1 20 км 9//
[]
+15.7 +14.0 90 +16 +16 1011.7 1006.9
00 16.09 Ю 2 20 км ?/? +19.2 +14.2 73 +21 +21 комфорт 1012.4 1007.7 +15.1 0.0
03 16.09 СВ 3 20 км 1/1
[]
+22.0 +11.9 53 +24 +35 комфорт 1012.4 1007.7
06 16.09 СВ 3 20 км ясно +21.4 +14.7 66 +24 +32 комфорт 1011.8 1007.1
09 16.09 СВ 4 20 км 3/0
[]
+19.6 +13.0 66 +21 +21 комфорт 1013.1 1008.4
12 16.09 З 2 20 км 8/0
[]
+16.4 +13.3 82 +17 +17 1014.2 1009.4 +22.3
15 16.09 ЮЗ 2 20 км ясно +15.2 +13.2 88 +15 +15 1015.0 1010.2
18 16.09 З 2 19 км 8/0
[]
+14.8 +13.3 91 +14 +14 1015.4 1010.6
21 16.09 ЮЗ 1 17 км 1/1 600 м
[]
+15.2 +13.9 92 +16 +16 1016.8 1012.0

 

Местоположение метеостанции Донгхэ (Корея): широта 37.50 долгота 129.13 высота над уровнем моря 37 м.

В архиве по умолчанию представлена погода в Донгхэ за последнюю неделю. Архивные данные за месяц целиком и за предыдущие месяцы, начиная с января 2011 года, Вы можете получить, выбрав интересующий диапазон дат из раскрывающегося списка и нажав кнопку "Ввод!".


*Определитесь, кто Вы:
робот инопланетянин человек

Внимание! Время в таблицах - всемирное. Для получения местного времени необходимо прибавить поправку, которая равна 9 ч.

Смотрите также архив погоды в соседних городах и на ближайших метеорологических станциях:

Погода в Канныне (Корея) (34 км)
Погода на Перевале Daegwallyeong (Корея) (38 км)
Погода в Ульджине (Корея) (63 км)
Погода в Йонволе (Корея) (69 км)
Погода в Сокчхо (Корея) (97 км)
Погода в Вонджу (Корея) (106 км)
Погода в Андоне (Корея) (110 км)
Погода в Чхунчхоне (Корея) (131 км)
Погода в Чунчоне (Корея) (132 км)
Погода в Ичхоне (Корея) (148 км)

Пояснения к столбцам:

Ветер - указаны скорость ветра в м/с - средняя за 10 мин, порывы в срок и между сроками (в фигурных скобках) и направление, откуда дует ветер: С - северный, СВ - северо-восточный, В - восточный, ЮВ - юго-восточный, Ю - южный, ЮЗ - юго-западный, З - западный, СЗ - северо-западный.
Видимость - горизонтальная дальность видимости в метрах или километрах. При видимости от 1 до 10 км при отсутствии осадков обычно наблюдается дымка, при ухудшении видимости до 1 км и менее - туман. В сухую погоду видимость может ухудшаться дымом, пылью или мглою.
Явления - указаны атмосферные явления, наблюдавшиеся в срок или в последний час перед сроком; фигурными скобками обозначены явления, наблюдавшиеся между сроками (за 1-3 часа до срока); квадратными скобками обозначены град или гололедные отложения с указанием их диаметра в мм.
Облачность - указаны через наклонную черту общая и нижняя облачность в баллах и высота нижней границы облаков в метрах; квадратными скобками обозначены формы облаков: Ci - перистые, Cs - перисто-слоистые, Cc - перисто-кучевые, Ac - высококучевые, As - высокослоистые, Sc - слоисто-кучевые, Ns - слоисто-дождевые, Cu - кучевые, Cb - кучево-дождевые. Подробнее классификацию облаков см. в Атласе облаков (PDF).
T - Температура воздуха - температура, измеренная на высоте 2 м над землей.
Td - Температура точки росы - температура, при понижении до которой содержащийся в воздухе водяной пар достигнет насыщения.
f - Относительная влажность воздуха - влажноcть воздуха, измеренная на высоте 2 м над землей.
Te - Эффективная температура - температура, которую ощущает одетый по сезону человек в тени. Характеристика душности погоды. При расчете учитывается влияние влажности воздуха и скорости ветра на теплоощущения человека.
Tes - Эффективная температура на солнце - температура, которую ощущает человек, с поправкой на солнечный нагрев. Характеристика знойности погоды. Зависит от высоты солнца над горизонтом, облачности и скорости ветра. Ночью, в пасмурную погоду, а также при ветре 12 м/с и более поправка равна нулю.
P - Атмосферное давление - приведенное к уровню моря атмосферное давление.
Po - Атмосферное давление - измеренное на уровне метеостанции атмосферное давление.
Tmin - Минимальная температура - минимум температуры воздуха на высоте 2 м над землей.
Tmax - Максимальная температура - максимум температуры воздуха на высоте 2 м над землей.
R - Количество осадков - Количество выпавших осадков за период времени, мм. При наведении курсора мыши на число - период времени, за который выпало указанное количество осадков.
R24 - Количество осадков - Количество выпавших осадков за 24 часа, мм.
S - Снежный покров - Высота снежного покрова, см. При наведении курсора мыши на число - состояние снежного покрова и степень покрытия местности в баллах.